Flag for U.S.A. Weather past 2 weeks in Annapolis, Maryland, U.S.A.

Now
72 °F

Mild.


Feels Like: 73 °F
Forecast: 69 / 77 °F
Wind: 8 mph from East

Location: Annapolis - United States Naval Academy

Current Time: Aug 23, 2014 at 9:27:57 AM

Latest Report: Aug 23, 2014 at 8:54 AM


Visibility: 10 mi

Pressure: 30.03 "Hg

Humidity: 78%

Dew point: 65 °F

Location of AnnapolisLocation

Historic Weather in Annapolis — Graph

°F

Annapolis temperature yesterday

Maximum temperature yesterday: 79 °F (at 5:54 PM)
Minimum temperature yesterday: 73 °F (at 3:54 AM)
Average temperature yesterday: 75 °F

Past Weeks' High & Low Weather Summary

 TemperatureHumidityPressure
High85 °F (Aug 17, 3:54 PM)97% (Aug 12, 2:54 PM)30.14 "Hg (Aug 12, 2:54 PM)
Low60 °F (Aug 15, 6:54 AM)36% (Aug 15, 4:54 PM)29.73 "Hg (Aug 13, 2:59 AM)
Average75 °F69%29.97 "Hg
* Reported Aug 8 7:54 AM — Aug 23 7:54 AM, Annapolis, Weather by CustomWeather, © 2014

Note: Actual official high and low records may vary slightly from our data, if they occured in-between our weather recording intervals... More about our weather records

Advertising

Annapolis weather history for previous 24 hours

 ConditionsComfort  
Time TempWeatherWind HumidityBarometerVisibility
7:54 AM
Aug 23
71 °FPartly sunny.6 mph84%30.03 "Hg10 mi
6:54 AM70 °FPassing clouds.5 mph84%30.02 "Hg10 mi
5:54 AM70 °FMild.N/A84%29.99 "Hg10 mi
4:54 AM71 °FOvercast.7 mph81%29.99 "Hg10 mi
3:54 AM71 °FOvercast.6 mph78%29.99 "Hg10 mi
2:54 AM71 °FMild.5 mph81%29.99 "Hg10 mi
1:54 AM72 °FMild.10 mph81%30.00 "Hg10 mi
12:54 AM73 °FMild.9 mph79%30.01 "Hg10 mi
11:54 PM
Aug 22
73 °FMild.10 mph81%30.01 "Hg10 mi
10:54 PM74 °FMild.10 mph82%30.01 "Hg10 mi
9:54 PM75 °FMild.12 mph76%30.00 "Hg10 mi
8:54 PM75 °FMostly cloudy.9 mph82%29.99 "Hg10 mi
7:54 PM76 °FMostly cloudy.13 mph80%29.98 "Hg10 mi
6:54 PM77 °FMore clouds than sun.No wind79%29.97 "Hg10 mi
5:54 PM79 °FOvercast.7 mph72%29.96 "Hg10 mi
4:54 PM78 °FWarm.7 mph74%29.96 "Hg10 mi
3:54 PM77 °FWarm.6 mph79%29.96 "Hg10 mi
2:54 PM77 °FWarm.N/A77%29.98 "Hg10 mi
1:54 PM76 °FMild.7 mph80%29.98 "Hg10 mi
12:54 PM76 °FMild.7 mph80%29.99 "Hg10 mi
11:54 AM77 °FWarm.N/A77%29.99 "Hg10 mi
10:54 AM78 °FWarm.No wind76%29.99 "Hg10 mi
9:54 AM76 °FMild.7 mph80%29.99 "Hg8 mi
Weather by CustomWeather, © 2014

See weather overviewHow to use our weather pages